Location: Hohe Wand Kleine Kanzel
(47.8330°N, 16.0170°E)
Time: 20:10:36
(UTC+02:00)

Vanguard 2 Rocket - All Passes

Search period start: 27 July 2021 00:00
Search period end: 06 August 2021 00:00
Orbit: 554 x 3325 km, 32.9° (Epoch: 26 July)

Date Brightness Start Highest point End Pass type
(mag) Time Alt. Az. Time Alt. Az. Time Alt. Az.
27 Jul - 10:39:40 10° SSW 10:42:27 15° SSE 10:45:53 10° SE daylight
27 Jul - 12:50:12 10° SW 12:54:37 21° S 13:00:49 10° SE daylight
27 Jul - 15:03:20 10° SW 15:07:43 15° SSW 15:13:18 10° SSE daylight
28 Jul - 09:42:39 10° SSE 09:43:24 10° SSE 09:44:11 10° SSE daylight
28 Jul - 11:51:36 10° SW 11:55:14 19° S 12:00:04 10° SE daylight
28 Jul - 14:03:46 10° SW 14:07:54 16° SSW 14:13:19 10° SSE daylight
29 Jul - 10:53:12 10° SSW 10:56:00 16° S 10:59:25 10° SE daylight
29 Jul - 13:04:39 10° SW 13:08:19 16° S 13:13:04 10° SSE daylight
30 Jul - 09:55:09 10° S 09:56:53 12° SSE 09:58:46 10° SE daylight
30 Jul - 12:05:48 10° SW 12:08:53 16° S 12:12:46 10° SSE daylight
31 Jul - 11:07:09 10° SSW 11:09:37 14° S 11:12:32 10° SSE daylight
31 Jul - 13:20:28 10° SSW 13:22:02 11° SSW 13:23:44 10° S daylight
01 Aug - 10:08:40 10° SSW 10:10:27 12° S 10:12:23 10° SSE daylight
01 Aug - 12:20:57 10° SSW 12:22:34 11° S 12:24:24 10° S daylight
02 Aug - 09:10:37 10° S 09:11:19 10° S 09:12:02 10° SSE daylight
02 Aug - 11:21:51 10° SSW 11:23:16 11° S 11:24:49 10° SSE daylight
03 Aug - 10:22:57 10° SSW 10:24:03 11° S 10:25:14 10° SSE daylight
04 Aug - 09:24:04 10° SSW 09:24:54 11° S 09:25:45 10° SSE daylight
05 Aug - 08:25:01 10° S 08:25:45 10° S 08:26:29 10° SSE daylight
